Zurück zum Katalog

Suomi 100

SUOMI100

AktivAmateurfunkSSO
NORAD 43804·PAYLOAD·🇫🇮 Finland

Gestartet Dec 3, 2018 von Vandenberg Space Force Base

Loading…

Nächste Überflüge (nächste 24 Stunden)

TLE

AktuellSource: Space-Track

Epoche: Sep 14, 2026, 21:47 UTC

1 43804U 18099AY  26257.90806787  .00011798  00000-0  40468-3 0  9994
2 43804  97.4088 318.0438 0008409 329.8826  30.1930 15.30288745427139

Verfolge Suomi 100 in Echtzeit mit AllMySat

Download on the App Store